Location: Rounton
(54.4000°N, 1.3500°W)
Time: 19:29:33
(UTC+01:00)

S-56A Canister/Altair - Pass Details

Date: 13 September 2024
Orbit: 636 x 2487 km, 38.9° (Epoch: 06 October)

Event Time Altitude Azimuth Distance (km) Brightness Sun altitude
Rises 23:36:54 0° 255° (WSW) 4,045 11.3 -29.7°
Reaches altitude 10° 23:39:47 10° 244° (WSW) 3,328 10.7 -29.9°
Enters shadow 23:42:42 21° 226° (SW) 2,828 10.2 -30.0°
Maximum altitude 23:46:50 29° 189° (S) 2,719 - -30.3°
Drops below altitude 10° 23:56:18 10° 137° (SE) 4,552 - -30.7°
Sets 00:01:04 0° 128° (SE) 5,802 - -31.0°
